Location: Beutels
(47.8767°N, 9.8584°E)
Time: 00:34:43
(UTC+00:00)

NOSS 7 (H) - Pass Details

Date: 19 May 2025
Orbit: 362 x 1535 km, 63.3° (Epoch: 15 June)

Event Time Altitude Azimuth Distance (km) Brightness Sun altitude
Rises 20:54:59 0° 317° (NW) 2,208 9.7 -15.1°
Reaches altitude 10° 20:56:54 10° 314° (NW) 1,373 8.1 -15.2°
Maximum altitude 20:59:48 63° 232° (SW) 446 4.3 -15.5°
Enters shadow 21:00:49 37° 166° (SSE) 650 4.7 -15.6°
